User: anonymous   Login
Location: Unspecified
(0.0000°N, 0.0000°E)
Time: 04:23:09
(UTC+00:00)
Language:

AGILE - Orbit

View from above orbital plane
View from above orbital plane
View from above satellite
View from above satellite

Ground track
Ground track

The orbit data is extracted from the following two-line orbital elements,

1 31135U 07013A   17295.02352880 +.00003244 +00000-0 +70189-4 0  9998
2 31135 002.4673 201.1741 0012618 175.8473 184.1686 15.30150626215782
Epoch (UTC): 22 October 2017 00:33:52
Eccentricity: 0.0012618
inclination: 2.4673°
perigee height: 467 km
apogee height: 484 km
right ascension of ascending node: 201.1741°
argument of perigee: 175.8473°
revolutions per day: 15.30150626
mean anomaly at epoch: 184.1686°
orbit number at epoch: 21578

The dashed part of the orbit path shows where the satellite is in the earth's shadow,  

DLR